Regional Weather Roundup
Issued by NWS Upton, NY

Current Version | Previous Version | Text Only | Print | Product List | Glossary Off
Versions: 1 2 3 4 5 6 7 8 9 10 11 12 13 14 15 16 17 18 19 20 21 22 23 24 25 26 27 28 29 30 31 32 33 34 35 36 37 38 39 40 41 42 43 44 45 46 47 48 49 50

000
ASUS41 KOKX 161205
RWROKX

REGIONAL WEATHER ROUNDUP
NATIONAL WEATHER SERVICE NEW YORK NY
800 AM EDT TUE SEP 16 2014

NOTE: "FAIR" INDICATES FEW OR NO CLOUDS BELOW 12,000 FEET WITH NO
SIGNIFICANT WEATHER AND/OR OBSTRUCTIONS TO VISIBILITY.

NYZ071-072-176-178-NJZ106-104-161300-
NEW YORK CITY METRO AREA


CITY           SKY/WX    TMP DP  RH WIND       PRES   REMARKS
CENTRAL PARK   LGT RAIN  62  57  83 CALM      30.03R
LAGUARDIA APRT LGT RAIN  64  56  75 SW3       30.00S
KENNEDY INTL   CLOUDY    66  56  70 S6        30.01S
NEWARK/LIBERTY LGT RAIN  60  56  86 W6        30.01R FOG
BRNX BOT. GARD   N/A     59  55  88 CALM      30.00F
TETERBORO      LGT RAIN  58  53  84 NW5       30.00R
$$

NYZ177-179-078>081-161300-
LONG ISLAND NEW YORK

CITY           SKY/WX    TMP DP  RH WIND       PRES   REMARKS
FARMINGDALE    CLOUDY    60  54  80 CALM      30.01S
ISLIP          PTSUNNY   62  57  83 CALM      29.99S
SHIRLEY        MOSUNNY   57  55  93 CALM      30.01F
WESTHAMPTON    MOSUNNY   62  57  83 CALM      30.02F
MONTAUK POINT    N/A     62  56  80 CALM      30.03F
$$

NYZ052-065-067-161300-
HUDSON VALLEY

CITY           SKY/WX    TMP DP  RH WIND       PRES   REMARKS
WHITE PLAINS   LGT RAIN  58  54  86 NW3       30.01R FOG
NEWBURGH       LGT RAIN  54  54 100 CALM      30.04R FOG
MONTGOMERY     LGT RAIN  54  52  93 SW3       30.03R
POUGHKEEPSIE   LGT RAIN  56  53  90 E3        30.02R FOG
ALBANY         LGT RAIN  53  51  93 CALM      30.02F
$$

NJZ001-105-106-008-010-013-015-019>022-104-161300-
NEW JERSEY

CITY           SKY/WX    TMP DP  RH WIND       PRES   REMARKS
NEWARK/LIBERTY LGT RAIN  60  56  86 W6        30.01R FOG
TETERBORO      LGT RAIN  58  53  84 NW5       30.00R
CALDWELL       HVY RAIN  54  51  90 CALM      30.04R FOG
MORRISTOWN     RAIN      55  55 100 CALM      30.03R FOG
SOMERVILLE     CLOUDY    55  53  93 N5        30.00R
LINDEN         RAIN      62  59  91 CALM      30.03R
SUSSEX         LGT RAIN  55  52  89 CALM      30.02F
ANDOVER          N/A     53  53 100 VRB3      30.02F
TRENTON        CLOUDY    57  55  93 NW5       29.99F
MILLVILLE      CLOUDY    66  63  90 SW3       29.99F
ATLANTIC CITY  CLOUDY    66  60  81 S3        30.00R
WRIGHTSTOWN    HVY RAIN  59  58  96 S5        29.97F FOG
TOMS RIVER     CLOUDY    57  55  94 CALM      30.01S
BELMAR         CLOUDY    59  54  82 CALM      30.01R
$$

PAZ047>061-062-071-161300-
EASTERN PENNSYLVANIA

CITY           SKY/WX    TMP DP  RH WIND       PRES   REMARKS
PHILADELPHIA   PTSUNNY   64  60  87 SW3       29.99F
ALLENTOWN      CLOUDY    56  53  90 SE5       30.00F
SCRANTON       CLOUDY    55  52  89 NW3       30.03R
$$

CTZ002-004>006-009-010-012-RIZ004-006-007-MAZ004-011-015-161300-
SOUTHERN NEW ENGLAND
 IN CT

CITY           SKY/WX    TMP DP  RH WIND       PRES   REMARKS
BRADLEY INTL   CLOUDY    53  49  86 N5        30.01F
HARTFORD       CLOUDY    56  51  84 SE8       30.01F
DANBURY        CLOUDY    53  50  89 CALM      30.02F
WTRBRY/OXFORD  MOSUNNY   55  50  82 SE3       30.02F
BRIDGEPORT     PTSUNNY   60  54  80 N5        30.00F
MERIDEN        CLOUDY    54  49  83 CALM      29.99F
NEW HAVEN      PTSUNNY   58  52  80 N3        30.00F
CHESTER        FAIR      55  52  88 E3        30.01F
GROTON         MOSUNNY   56  53  90 N3        30.02F
WILLIMANTIC    PTSUNNY   52  47  83 CALM      30.03F

 IN RI

CITY           SKY/WX    TMP DP  RH WIND       PRES   REMARKS
PROVIDENCE     CLOUDY    56  50  80 CALM      30.05F
BLOCK ISLAND   MOSUNNY   61  50  67 CALM      30.03F
WESTERLY       PTSUNNY   54  50  86 CALM      30.03F

 IN MA

CITY           SKY/WX    TMP DP  RH WIND       PRES   REMARKS
BOSTON         CLOUDY    57  50  77 CALM      30.04F
WORCESTER      CLOUDY    54  46  74 CALM      30.03F
WESTFIELD      LGT RAIN  52  49  89 N5        30.02F
PROVINCETOWN   CLOUDY    61  52  72 S5        30.05F
NANTUCKET      CLOUDY    61  52  72 SE7       30.05S
$$

ANZ330-335-338-340-345-350-353-355-161300-
COASTAL MARINE OBSERVATIONS


STATION/POSITION TIME  SKY/WX   TEMP    WIND        PRES    VSBY  WAVE
                                AIR SEA DIR/SP/G                  HT/PER
                 (UTC)          (F)     (DEG/KT/KT) (MB)    (MI)  (FT/S)
NY HARB ENTRANCE NOT AVBL
4S FIRE IS       NOT AVBL
23SW MTP         1200                                 N/A           2/ 8
HUDSON CANYON    1200            68 73  100/  4/  6 1016.1          2/ 7
EXECUTION ROCKS  1200            64 71  180/  2/  4   N/A
WESTERN LI SOUND 1100            65     150/  4/  6   N/A           0
CENTRAL LI SOUND 1100            66 71  180/  8/ 10   N/A           1/ 3
EASTERN LI SOUND 1100            62 68   70/  6/  8   N/A
ROBBINS REEF     1200            64     220/  7/ 10 1014.9
$$


>>>>>>>>>>>>>>>>>>>>>>>>>>>> KEY <<<<<<<<<<<<<<<<<<<<<<<<<<<
>                                                          <
>     SKY/WX - SKY CONDITION/PRESENT WEATHER               <
>     TMP    - TEMPERATURE IN FAHRENHEIT                   <
>     DP     - DEWPOINT IN FAHRENHEIT                      <
>     RH     - RELATIVE HUMIDITY IN PERCENT                <
>     WIND   - DIRECTION AND SPEED IN MPH                  <
>     PRES   - MEAN SEA LEVEL PRESSURE IN INCHES OF HG     <
>     WCI    - WIND CHILL INDEX                            <
>     VSB    - VISIBILITY IN MILES                         <
>     HX     - HEAT INDEX                                  <
>     TC     - TEMPERATURE IN CELSIUS                      <
>     VRB    - VARIABLE WIND DIRECTION                     <
>                                                          <
>>>>>>>>>>>>>>>>>>>>>>>>>>>> KEY <<<<<<<<<<<<<<<<<<<<<<<<<<<





USA.gov is the U.S. government's official web portal to all federal, state and local government web resources and services.